sat.trackr.live / text

‹ back to catalog

STARLINK-11430 [DTC]

NORAD 62916 · 2025-027K

PAYLOAD ACTIVE UNKNOWN

§ Identity

Operator
Country
US
Launch date
2025-02-08
Launch site
AFETR
Launch vehicle
Mass (kg)
RCS (m²)

Purposes: comms

External: N2YO · Heavens-Above · Gunter

§ Orbital elements

Epoch: 2026-09-21T08:58:26.409792Z

Period
91.67 min
Inclination
42.9997°
Eccentricity
0.0001038
Mean motion
15.70869723 rev/d
Perigee alt
355.7 km
Apogee alt
357.1 km
Semi-major
6,734.5 km
B*
1.2323e-3
RAAN
248.5473°
Arg perigee
257.8242°
Mean anomaly
102.2510°
Rev number
9,396

§ Raw data

STARLINK-11430 [DTC]1 62916U 25027K   26264.37391678  .00160965  00000+0  12323-2 0  99932 62916  42.9997 248.5473 0001038 257.8242 102.2510 15.70869723 93967

JSON: /api/v1/satellites/62916 · /tle

For live sub-satellite position, see the globe view (requires WebGL).

§ Visibility from observer

Set your observer location to see the next 7 days of passes ≥ 10°. The values pass through the URL so the page stays shareable.

No JS? Fill the form by hand. The geolocation button needs JavaScript.